G7TKI-13 Weather Reports


time (UTC)temp
C
wind
direction
speed
KPH
gust
KPH
rain 1hr
cm
rain 24hr
cm
rain mn
cm
humidity
%
barometer
mb
20260510142902 12 301 3.2 3.2 0.00 0.00 0.00 64 1020.0
20260510141851 12 2 6.4 9.7 0.00 0.00 0.00 62 1020.1
20260510140844 12 340 0.0 1.6 0.00 0.00 0.00 65 1020.3
20260510135853 12 342 1.6 1.6 0.00 0.00 0.00 66 1020.3
20260510134829 12 108 3.2 3.2 0.00 0.00 0.00 65 1020.6
20260510133900 12 278 3.2 4.8 0.00 0.00 0.00 65 1020.2
20260510132852 12 0.0 0.0 0.00 0.00 0.00 64 1020.4
20260510131805 12 344 1.6 1.6 0.00 0.00 0.00 65 1020.6
20260510130757 12 332 4.8 4.8 0.00 0.00 0.00 68 1020.7
20260510125750 11 81 1.6 3.2 0.00 0.00 0.00 69 1021.0
20260510124734 11 43 8.0 11.3 0.00 0.00 0.00 70 1021.0
20260510123732 11 65 1.6 1.6 0.00 0.00 0.00 69 1021.0
20260510122722 12 338 0.0 1.6 0.00 0.00 0.00 68 1021.1
20260510121716 11 323 3.2 6.4 0.00 0.00 0.00 69 1021.3
20260510120708 11 275 1.6 3.2 0.00 0.00 0.00 71 1021.7
20260510115700 11 54 9.7 14.5 0.00 0.00 0.00 70 1021.3
20260510114652 11 23 1.6 1.6 0.00 0.00 0.00 71 1021.3
20260510113639 11 242 1.6 3.2 0.00 0.00 0.00 73 1021.5
20260510112637 11 337 1.6 3.2 0.00 0.00 0.00 73 1021.4
20260510111655 11 312 3.2 6.4 0.00 0.00 0.00 75 1021.4
20260510110644 11 0 6.4 11.3 0.00 0.00 0.00 75 1021.7
20260510105628 11 99 3.2 4.8 0.00 0.00 0.00 74 1021.5
20260510104620 11 306 4.8 9.7 0.00 0.00 0.00 75 1021.4
20260510103612 11 318 3.2 3.2 0.00 0.00 0.00 75 1021.4
20260510102604 11 304 3.2 4.8 0.00 0.00 0.00 76 1021.7
20260510101558 11 79 1.6 3.2 0.00 0.00 0.00 75 1021.6
20260510100549 11 346 1.6 3.2 0.00 0.00 0.00 75 1021.8
20260510095534 11 354 1.6 1.6 0.00 0.00 0.00 75 1021.6
20260510094532 11 339 6.4 9.7 0.00 0.00 0.00 76 1021.8
20260510093521 11 285 4.8 9.7 0.00 0.00 0.00 75 1021.6
20260510092516 11 303 0.0 1.6 0.00 0.00 0.00 76 1021.9
20260510091508 11 330 11.3 14.5 0.00 0.00 0.00 75 1021.8
20260510090500 11 22 4.8 6.4 0.00 0.00 0.00 76 1021.8
20260510085446 11 111 4.8 9.7 0.00 0.00 0.00 77 1022.0
20260510084444 11 264 4.8 9.7 0.00 0.00 0.00 78 1022.1
20260510083434 11 222 1.6 3.2 0.00 0.00 0.00 80 1022.1
20260510082429 11 11 4.8 6.4 0.00 0.00 0.00 80 1022.0
20260510081421 11 133 0.0 1.6 0.00 0.00 0.00 81 1021.8
20260510080412 11 133 0.0 1.6 0.00 0.00 0.00 82 1021.9
20260510075404 10 144 1.6 1.6 0.00 0.00 0.00 82 1021.9
20260510074356 10 18 4.8 11.3 0.00 0.00 0.00 83 1022.0
20260510073348 10 356 3.2 4.8 0.00 0.00 0.00 84 1022.2
20260510072400 10 31 3.2 4.8 0.00 0.00 0.00 84 1021.9
20260510071337 10 270 1.6 1.6 0.00 0.00 0.00 85 1021.9
20260510070336 10 315 4.8 6.4 0.00 0.00 0.00 86 1022.0
20260510065333 10 14 6.4 6.4 0.00 0.00 0.00 87 1021.8
20260510064321 9 324 1.6 3.2 0.00 0.00 0.00 89 1021.9
20260510063316 9 318 1.6 1.6 0.00 0.00 0.00 90 1021.6
20260510062329 9 67 1.6 1.6 0.00 0.00 0.00 91 1021.9
20260510061251 8 15 4.8 6.4 0.00 0.00 0.00 92 1022.1
20260510060250 8 50 9.7 14.5 0.00 0.00 0.00 92 1021.9
20260510055235 8 355 3.2 3.2 0.00 0.00 0.00 93 1021.6
20260510054234 8 57 3.2 3.2 0.00 0.00 0.00 93 1021.7
20260510053229 8 8 3.2 4.8 0.00 0.00 0.00 94 1021.6
20260510052148 8 0 1.6 1.6 0.00 0.00 0.00 94 1021.6
20260510051133 8 21 1.6 3.2 0.00 0.00 0.00 94 1021.8
20260510050130 7 346 1.6 1.6 0.00 0.00 0.00 94 1021.6
20260510045124 7 26 3.2 3.2 0.00 0.00 0.00 94 1021.8
20260510044117 7 336 6.4 6.4 0.00 0.00 0.00 93 1021.6
20260510043108 7 329 0.0 1.6 0.00 0.00 0.00 93 1021.4
20260510042100 8 343 4.8 6.4 0.00 0.00 0.00 93 1021.9
20260510041045 8 325 4.8 4.8 0.00 0.00 0.00 93 1021.8
20260510040044 8 25 0.0 1.6 0.00 0.00 0.00 92 1021.8
20260510035038 8 1 3.2 4.8 0.00 0.00 0.00 92 1021.8
20260510034056 8 328 1.6 3.2 0.00 0.00 0.00 92 1021.8
20260510033054 8 351 6.4 6.4 0.00 0.00 0.00 92 1022.1
20260510032029 8 10 4.8 6.4 0.00 0.00 0.00 92 1022.0
20260510031025 8 301 1.6 1.6 0.00 0.00 0.00 92 1022.2
20260510030023 8 335 1.6 3.2 0.00 0.00 0.00 92 1022.0
20260510025101 8 14 3.2 3.2 0.00 0.00 0.00 92 1022.1
20260510024012 8 321 1.6 4.8 0.00 0.00 0.00 92 1022.1
20260510022520 8 8 3.2 3.2 0.00 0.00 0.00 93 1022.1
20260510021445 8 15 1.6 1.6 0.00 0.00 0.00 93 1022.2
20260510020444 8 356 1.6 3.2 0.00 0.00 0.00 93 1022.3
20260510015453 8 340 3.2 3.2 0.00 0.00 0.00 93 1022.3
20260510014429 8 265 0.0 1.6 0.00 0.00 0.00 93 1022.2
20260510013440 8 290 1.6 3.2 0.00 0.00 0.00 93 1022.0
20260510012413 8 358 0.0 1.6 0.00 0.00 0.00 93 1021.9
20260510011424 8 358 4.8 6.4 0.00 0.00 0.00 93 1021.8
20260510010356 8 34 1.6 1.6 0.00 0.00 0.00 92 1022.2
20260510005349 8 341 3.2 3.2 0.00 0.00 0.00 92 1022.3
20260510004354 8 354 3.2 3.2 0.00 0.00 0.00 91 1022.3
20260510003333 8 356 1.6 1.6 0.00 0.00 0.00 90 1022.3
20260510002321 8 354 3.2 4.8 0.00 0.00 0.00 89 1022.4
20260510001336 8 39 1.6 3.2 0.00 0.00 0.00 87 1022.4
20260510000311 8 323 3.2 4.8 0.00 0.00 0.00 86 1022.4
20260509235300 9 343 3.2 4.8 0.00 0.00 0.00 86 1022.4
20260509234352 9 27 1.6 3.2 0.00 0.00 0.00 85 1022.6
20260509233239 9 14 3.2 4.8 0.00 0.00 0.00 84 1022.4
20260509232237 9 10 1.6 1.6 0.00 0.00 0.00 84 1022.3
20260509231235 9 1 1.6 1.6 0.00 0.00 0.00 83 1022.3
20260509230233 9 14 0.0 1.6 0.00 0.00 0.00 82 1022.2
20260509225248 8 21 0.0 1.6 0.00 0.00 0.00 81 1022.3
20260509224220 8 0.0 0.0 0.00 0.00 0.00 80 1022.5
20260509223212 10 0.0 0.0 0.00 0.00 0.00 78 1022.5
20260509222204 10 0.0 0.0 0.00 0.00 0.00 76 1022.5
20260509221156 10 312 0.0 1.6 0.00 0.00 0.00 76 1022.2
20260509220148 10 0.0 0.0 0.00 0.00 0.00 74 1022.0
20260509215135 10 344 0.0 1.6 0.00 0.00 0.00 73 1021.8
20260509214132 10 1 1.6 1.6 0.00 0.00 0.00 71 1021.8
20260509213121 11 0.0 0.0 0.00 0.00 0.00 68 1022.0
20260509212116 11 344 0.0 1.6 0.00 0.00 0.00 68 1021.9
20260509211109 11 0.0 0.0 0.00 0.00 0.00 66 1022.0
20260509210101 11 90 1.6 1.6 0.00 0.00 0.00 65 1021.8
20260509205049 11 0.0 0.0 0.00 0.00 0.00 63 1021.7
20260509204035 11 338 1.6 1.6 0.00 0.00 0.00 63 1021.8
20260509203034 11 0.0 0.0 0.00 0.00 0.00 62 1021.4
20260509202028 11 0.0 0.0 0.00 0.00 0.00 60 1021.4
20260509201020 12 0.0 0.0 0.00 0.00 0.00 58 1021.3
20260509200053 12 47 0.0 1.6 0.00 0.00 0.00 58 1021.4
20260509194500 13 0.0 0.0 0.00 0.00 0.00 56 1021.5
20260509193445 13 0.0 0.0 0.00 0.00 0.00 56 1021.1
20260509192443 13 0.0 0.0 0.00 0.00 0.00 58 1021.4
20260509191441 15 0.0 0.0 0.00 0.00 0.00 57 1021.1
20260509190500 15 0.0 0.0 0.00 0.00 0.00 57 1021.1
20260509185438 15 0.0 0.0 0.00 0.00 0.00 55 1021.0
20260509184436 15 155 1.6 1.6 0.00 0.00 0.00 54 1020.9
20260509183434 16 121 3.2 4.8 0.00 0.00 0.00 52 1020.9
20260509182428 16 181 0.0 1.6 0.00 0.00 0.00 50 1020.7
20260509181414 17 310 1.6 1.6 0.00 0.00 0.00 47 1020.8
20260509180433 18 0.0 0.0 0.00 0.00 0.00 46 1020.4
20260509175343 16 152 1.6 1.6 0.00 0.00 0.00 48 1020.5
20260509174340 16 170 1.6 3.2 0.00 0.00 0.00 48 1020.7
20260509173304 16 114 1.6 1.6 0.00 0.00 0.00 47 1020.5
20260509172236 17 140 4.8 6.4 0.00 0.00 0.00 45 1020.8
20260509171155 17 116 3.2 3.2 0.00 0.00 0.00 44 1020.8
20260509170034 18 138 1.6 1.6 0.00 0.00 0.00 43 1020.7
20260509165020 17 357 0.0 1.6 0.00 0.00 0.00 44 1020.9
20260509163940 18 123 1.6 3.2 0.00 0.00 0.00 44 1020.7
20260509162934 19 308 1.6 3.2 0.00 0.00 0.00 44 1021.0
20260509160734 -17 0.0 0.0 0.00 0.00 0.00 1021.0
20260509155634 -17 0.0 0.0 0.00 0.00 0.00 1021.1
20260509154454 21 10 3.2 6.4 0.00 0.00 0.00 38 1021.1
20260509153355 -17 0.0 0.0 0.00 0.00 0.00 1020.8
20260509152255 21 140 1.6 1.6 0.00 0.00 0.00 40 1020.8
20260509151035 21 184 3.2 4.8 0.00 0.00 0.00 39 1020.6
20260509150034 22 236 3.2 4.8 0.00 0.00 0.00 38 1020.5
20260509145041 22 133 3.2 9.7 0.00 0.00 0.00 40 1020.4
20260509144517 22 29 1.6 1.6 0.00 0.00 0.00 37 1020.3
20260509143452 21 68 3.2 3.2 0.00 0.00 0.00 38 1020.2